Flag for Germany Weather past 2 weeks in Gera, Thuringia, Germany

Now
49 °F

Light rain. Overcast.


Feels Like: 45 °F
Forecast: 40 / 48 °F
Wind: 10 mph from Southwest

Location: Gera-Leumnitz

Current Time: Mar 29, 2015 at 7:38:16 PM

Latest Report: Mar 29, 2015 at 7:00 PM


Visibility: 47 mi

Pressure: 29.41 "Hg

Humidity: 76%

Dew point: 42 °F

Location of GeraLocation

Historic Weather in Gera — Graph

°F

Gera temperature yesterday

Maximum temperature yesterday: 51 °F (at 4:00 PM)
Minimum temperature yesterday: 39 °F (at 6:00 AM)
Average temperature yesterday: 44 °F

Past Weeks' High & Low Weather Summary

 TemperatureHumidityPressure
High64 °F (Mar 25, 3:00 PM)97% (Mar 14, 10:00 PM)30.38 "Hg (Mar 14, 10:00 PM)
Low25 °F (Mar 23, 5:00 AM)29% (Mar 20, 4:00 PM)29.44 "Hg (Mar 29, 6:00 PM)
Average42 °F75%30.09 "Hg
* Reported Mar 14 5:00 PM — Mar 29 6:00 PM, Gera, Weather by CustomWeather, © 2015

Note: Actual official high and low records may vary slightly from our data, if they occured in-between our weather recording intervals... More about our weather records

Advertising

Gera weather history for previous 24 hours

 ConditionsComfort  
Time TempWeatherWind HumidityBarometerVisibility
6:00 PM
Sun, Mar 29
49 °FLight rain. Overcast.8 mph80%29.44 "Hg34 mi
5:00 PM50 °FLight rain. Overcast.9 mph78%29.50 "Hg31 mi
4:00 PM50 °FLight rain. Overcast.8 mph81%29.54 "Hg25 mi
3:00 PM49 °FLight rain. Overcast.6 mph87%29.57 "Hg14 mi
2:00 PM50 °FLight rain. Low clouds.8 mph83%29.60 "Hg15 mi
1:00 PM50 °FLight rain. Overcast.6 mph88%29.62 "Hg12 mi
12:00 PM50 °FLight rain. Overcast.9 mph82%29.65 "Hg11 mi
11:00 AM49 °FDrizzle. Low clouds.7 mph86%29.68 "Hg12 mi
10:00 AM50 °FOvercast.7 mph85%29.68 "Hg31 mi
9:00 AM49 °FDrizzle. Low clouds.8 mph83%29.70 "Hg22 mi
8:00 AM47 °FOvercast.7 mph88%29.71 "Hg25 mi
7:00 AM48 °FOvercast.8 mph84%29.74 "Hg25 mi
6:00 AM46 °FOvercast.8 mph90%29.75 "Hg11 mi
5:00 AM46 °FDrizzle. Low clouds.8 mph87%29.79 "Hg9 mi
4:00 AM44 °FDrizzle. Low clouds.8 mph91%29.80 "Hg5 mi
3:00 AM45 °FDrizzle. Overcast.8 mph81%29.85 "Hg10 mi
1:00 AM45 °FOvercast.7 mph78%29.87 "Hg10 mi
12:00 AM45 °FOvercast.6 mph73%29.89 "Hg9 mi
11:00 PM
Sat, Mar 28
45 °FOvercast.8 mph69%29.91 "Hg11 mi
10:00 PM45 °FOvercast.6 mph65%29.94 "Hg15 mi
9:00 PM46 °FOvercast.5 mph59%29.95 "Hg16 mi
8:00 PM46 °FOvercast.6 mph58%29.96 "Hg16 mi
7:00 PM47 °FOvercast.5 mph54%29.98 "Hg19 mi
Weather by CustomWeather, © 2015

See weather overviewHow to use our weather pages